Domov               UVHVVR             MKGP            O straneh              
ZDRAVSTVENO VARSTVO RASTLIN
  MREŽA AGROMET. POSTAJ
 ► PROGNOSTIČNA OBVESTILA
AGROMETEOROLOŠKI PODATKI -
ARSO
OBVLADOVANJE TVEGANJ ZARADI
NEUGODNIH VREMENSKIH RAZMER
  ► NARAVNE NESREČE
  ► SUŠA/MOČA
  ► NAMAKANJE
  ► ŽLED (gozdarstvo)
KARTOGRAFSKI PRIKAZI
SPLETNE POVEZAVE
PROJEKTI IN PUBLIKACIJE

AGROMETEOROLOŠKA MREŽA: VREMENSKE POSTAJE IN FENOLOŠKA OPAZOVANJA

Pregled podatkov za lokacijo Podbrezje, meteorološka postaja 855704

Pregled senzorjev na lokaciji

ID Ime Zadnja
vrednost
Datum
zadnje
spremembe
Tip
senzorja
4023 Omočenost lista (U) 0 U 25.2.2018 16:00 A730WET
4024 Padavine (mm) 0 mm 25.2.2018 16:00 Rain-O-Matic
4022 Relativna vlaga 2 m (% RH) 51,39 % RH 25.2.2018 16:00 50YA
4021 Temperatura 2 m (°C) -3,99 °C 25.2.2018 16:00 50YA

Pregled podatkov zadnjih 24 ur

Zap.
št.
Datum in čas Podbrezje
Omočenost
lista
Padavine Relativna
vlaga
2
m
Temperatura
2
m
1 25.2.2018 16:00
2 25.2.2018 15:30 0 0 45,7 -3
3 25.2.2018 15:00 0 0 45,9 -3,3
4 25.2.2018 14:30 0 0 47,7 -3,4
5 25.2.2018 14:00 0 0 48,6 -3,4
6 25.2.2018 13:30 0 0 48,7 -3,6
7 25.2.2018 13:00 0 0 48,5 -3,8
8 25.2.2018 12:30 0 0 49 -4
9 25.2.2018 12:00 0 0 49,5 -3,9
10 25.2.2018 11:30 0 0 50,4 -4,1
11 25.2.2018 11:00 3 0 52,2 -4,4
12 25.2.2018 10:30 0 0 55,7 -5,1
13 25.2.2018 10:00 0 0 59,6 -6
14 25.2.2018 09:30 0 0 62,6 -6,3
15 25.2.2018 09:00 0 0 65,7 -6,8
16 25.2.2018 08:30 0 0 67,5 -7,1
17 25.2.2018 08:00 0 0 73,5 -7,9
18 25.2.2018 07:30 0 0 80,4 -8,5
19 25.2.2018 07:00 0 0 77,8 -8,1
20 25.2.2018 06:30 0 0 73,2 -7,5
21 25.2.2018 06:00 0 0 72,1 -7,2
22 25.2.2018 05:30 0 0 72 -6,9
23 25.2.2018 05:00 0 0 70,1 -6,7
24 25.2.2018 04:30 1 0 71,8 -6,6
25 25.2.2018 04:00 1 0 74,9 -6,3
26 25.2.2018 03:30 1 0 78,5 -6,1
27 25.2.2018 03:00 1 0 82,4 -6,1
28 25.2.2018 02:30 1 0 84,1 -6
29 25.2.2018 02:00 1 0 83 -5,8
30 25.2.2018 01:30 1 0 82,6 -5,5
31 25.2.2018 01:00 0 0 82,5 -5,1
32 25.2.2018 00:30 0 0 80,7 -4,9
33 25.2.2018 00:00 0 0 79 -4,7
34 24.2.2018 23:30 0 0 77,5 -4,5
35 24.2.2018 23:00 0 0 76,8 -4,2
36 24.2.2018 22:30 0 0 76,2 -4
37 24.2.2018 22:00 0 0 75,8 -3,9
38 24.2.2018 21:30 0 0 78 -3,6
39 24.2.2018 21:00 0 0 77,3 -3,5
40 24.2.2018 20:30 0 0 78,7 -3,2
41 24.2.2018 20:00 0 0 81,1 -3
42 24.2.2018 19:30 0 0 86,4 -2,8
43 24.2.2018 19:00 0 0 89,2 -2,5
44 24.2.2018 18:30 0 0 89,9 -2,2
45 24.2.2018 18:00 0 0 91,5 -2
46 24.2.2018 17:30 0 0 91,5 -1,8
47 24.2.2018 17:00 0 0 91,5 -1,6
48 24.2.2018 16:30 0 0 91,2 -1,3
© 2011 Ministrstvo za kmetijstvo, gozdarstvo in prehrano. Vse pravice pridržane.